Regional Weather Roundup
Issued by NWS

Home | Current Version | Previous Version | Text Only | Print | Product List | Glossary Off
Versions: 1 2 3 4 5 6 7 8 9 10 11 12 13 14 15 16 17 18 19 20 21 22 23 24 25 26 27 28 29 30 31 32 33 34 35 36 37 38 39 40 41 42 43 44 45 46 47 48 49 50

000
ASUS43 KMPX 290610
RWRMN
WEATHER ROUNDUP FOR MINNESOTA
NATIONAL WEATHER SERVICE TWIN CITIES/CHANHASSEN MN
100 AM CDT WED JUL 29 2015


NOTE: "FAIR" INDICATES FEW OR NO CLOUDS BELOW 12,000 FEET WITH NO
SIGNIFICANT WEATHER AND/OR OBSTRUCTIONS TO VISIBILITY. N/A MEANS
CURRENT SKY AND/OR WEATHER CONDITIONS ARE NOT AVAILABLE.

MNZ060>063-068>070-290700-
   Twin Cities Metro

CITY           SKY/WX    TMP DP  RH WIND       PRES   REMARKS
TWIN CITIES    MOCLDY    72  60  66 SW9       29.93R
6HR MIN TEMP:  72; 6HR MAX TEMP:  82;

ST PAUL        CLOUDY    71  60  68 W9        29.93R
CRYSTAL        MOCLDY    72  58  61 SW8       29.91S
BLAINE         MOCLDY    72  61  68 W8        29.92S
LAKEVILLE      CLOUDY    66  61  82 SW6       29.95R
EDEN PRAIRIE   MOCLDY    67  61  81 SW6       29.93R
6HR MIN TEMP:  67; 6HR MAX TEMP:  82;

SOUTH ST PAUL  CLOUDY    71  60  68 W6        29.93S
LAKE ELMO      FAIR      70  61  73 SW8       29.94R
$$
MNZ001>005-007-008-013>017-022>024-027-028-290700-
   Northwest Minnesota

CITY           SKY/WX    TMP DP  RH WIND       PRES   REMARKS
BEMIDJI        CLOUDY    65  48  53 SW17G26   29.69F
HALLOCK        CLOUDY    64  57  77 SW22G32   29.43S
ROSEAU         CLOUDY    64  54  68 SW21G38   29.47F
WARROAD        CLOUDY    66  54  63 SW25G38   29.48F
THIEF RVR FALL CLOUDY    63  52  67 SW20G36   29.58S
CROOKSTON      CLOUDY    64  54  68 W28G33    29.61S
FOSSTON        CLOUDY    63  50  63 SW28G38   29.67S
DETROIT LAKES  MOCLDY    66  46  48 W16G32    29.79S
MOORHEAD       CLEAR     66  48  52 W23G38    29.76S
PARK RAPIDS    CLEAR     66  46  48 SW18G30   29.78F
MAHNOMEN       CLOUDY    64  49  58 SW31G39   29.72S
$$
MNZ006-009>011-018-025>026-290700-
   North Central Minnesota

CITY           SKY/WX    TMP DP  RH WIND       PRES   REMARKS
BAUDETTE       CLOUDY    68  49  50 S21G33    29.53F
FLAG ISLAND    CLOUDY    68  54  60 S26G37    29.43F
INTL FALLS     CLEAR     65  50  58 SW12G23   29.60F
6HR MIN TEMP:  65; 6HR MAX TEMP:  80;

WASKISH        CLOUDY    66  52  59 SW15G29   29.62F HAZE
BIG FORK       CLEAR     66  50  55 SW16G25   29.69F
LONGVILLE      CLEAR     66  48  52 SW17G30   29.76F
GRAND RAPIDS   CLEAR     66  48  52 SW16G22   29.75F
CRANE LAKE     CLEAR     66  54  63 S9G20     29.70F
ORR            CLEAR     64  52  63 S7        29.66F
COOK           CLEAR     68  54  60 S12G17    29.71F
WALKER         FAIR      66  47  50 SW22G32   29.74F
$$
MNZ012-019>021-037-290700-
   Northeast Minnesota

CITY           SKY/WX    TMP DP  RH WIND       PRES   REMARKS
DULUTH         CLEAR     69  55  60 SW13      29.80F
6HR MIN TEMP:  69; 6HR MAX TEMP:  80; 6HR PCP: TRACE;

ELY            CLEAR     68  54  60 SW10G18   29.73F
HIBBING        CLEAR     66  53  63 SW7       29.74F
EVELETH        CLEAR     64  52  63 SW12G21   29.76F
DULUTH HARBOR  CLEAR     73  61  64 SW16      29.79F
TWO HARBORS    CLEAR     70  61  73 SW8       29.76F
SILVER BAY     CLEAR     68  57  68 SW3       29.74F
GRAND MARAIS     N/A     60  59  96 SW3       29.72S
G MARAIS ARPRT CLOUDY    70  63  78 SW12G17   29.77F
$$
MNZ029>031-032-039>041-046>048-054>057-064-290700-
   West Central Minnesota

CITY           SKY/WX    TMP DP  RH WIND       PRES   REMARKS
FERGUS FALLS   CLEAR     64  50  59 SW16G22   29.84S
WHEATON        CLEAR     66  48  52 SW10      29.91S
MORRIS         CLEAR     63  54  72 S8        29.92F
ALEXANDRIA     CLEAR     64  52  64 SW13      29.91F
ELBOW LAKE     FAIR      62  51  67 SW13      29.89S
WADENA         CLEAR     64  48  55 SW16G23   29.83F
GLENWOOD       CLEAR     64  52  63 SW14G20   29.93F
APPLETON       CLEAR     66  52  59 SW9       29.95F
BENSON         CLEAR     63  54  72 W6        29.94F
ORTONVILLE     CLEAR     63  52  67 SW6       29.94F
MADISON        CLEAR     61  54  77 SW7       29.97F
WILLMAR        FAIR      66  55  68 W14G22    29.96F
$$
MNZ033>034-036-042>043-049>051-058-059-290700-
   Central Minnesota

CITY           SKY/WX    TMP DP  RH WIND       PRES   REMARKS
ST CLOUD       CLEAR     67  52  58 W13       29.89F
6HR MIN TEMP:  66; 6HR MAX TEMP:  81;

SAUK CENTRE    FAIR      64  52  65 SW10G18   29.91F
PAYNESVILLE    CLEAR     62  53  72 SW13      29.93F
AITKIN         CLEAR     68  52  56 SW10G16   29.79F
PINE RIVER     CLEAR     66  50  55 SW15G22   29.84F
BRAINERD       CLEAR     69  49  48 W22G30    29.83F
STAPLES        CLEAR     64  46  52 SW13G23   29.84F
LONG PRAIRIE   FAIR      64  50  59 SW12      29.89F
LITTLE FALLS   CLEAR     68  46  45 W12G25    29.87F
LITCHFIELD     PTCLDY    70  57  64 W8        29.93F
BUFFALO        PTCLDY    66  59  77 SW5       29.93F
MAPLE LAKE     PTCLDY    66  61  82 SW3       29.92F
$$
MNZ037-044-045-052-053-290700-
   East Central Minnesota

CITY           SKY/WX    TMP DP  RH WIND       PRES   REMARKS
PRINCETON      PTCLDY    68  57  68 SW5       29.89F
MORA           CLEAR     66  55  68 SW5       29.88F
CAMBRIDGE      PTCLDY    72  55  56 SW6       29.88S
RUSH CITY      PTCLDY    69  56  65 SW8       29.89S
MOOSE LAKE     CLEAR     63  55  77 SW7       29.81F
HINCKLEY       FAIR      64  57  77 SW7       29.86F
CLOQUET        CLEAR     66  55  68 SW8       29.81F
MCGREGOR       CLEAR     68  52  56 SW9       29.80F
$$
MNZ071>073-080-081-089-090-097-098-290700-
   Southwest Minnesota

CITY           SKY/WX    TMP DP  RH WIND       PRES   REMARKS
MONTEVIDEO     CLEAR     64  55  72 W8        29.98F
GRANITE FALLS  CLEAR     62  56  81 CALM      29.99F
CANBY          CLEAR     64  53  65 SW8       30.01S
MARSHALL       CLEAR     63  52  67 W10       30.01F
REDWOOD FALLS  CLEAR     67  55  65 W14       29.97S
OLIVIA         CLEAR     61  52  72 W13       29.96S
PIPESTONE      CLEAR     66  54  63 NW6       30.05F
WINDOM         CLEAR     63  57  82 W3        30.02S
WORTHINGTON    CLEAR     63  54  72 W10       30.04S
JACKSON        PTCLDY    63  57  82 W5        30.04R
TRACY          CLEAR     66  55  68 W6        30.02S
SLAYTON        CLEAR     63  56  79 CALM      30.05S
$$
MNZ065>067-074>077-082>085-091>093-290700-
   South Central Minnesota

CITY           SKY/WX    TMP DP  RH WIND       PRES   REMARKS
MANKATO        MOCLDY    64  59  82 W7        29.98S
NEW ULM        PTCLDY    63  59  88 W3        29.98R
ST JAMES       PTCLDY    66  61  82 SW5       30.01R
FAIRMONT       PTCLDY    63  55  77 CALM      30.01R
GLENCOE        MOCLDY    65  61  86 SW3       29.95R
FARIBAULT      CLOUDY    68  63  83 W6        29.97R
OWATONNA       CLOUDY    64  61  88 SW6       29.98S
WASECA         CLOUDY    63  59  88 W6        30.00S
ALBERT LEA     CLOUDY    66  63  88 W3        30.00R
$$
MNZ078>079-086>088-094>096-290700-
   Southeast Minnesota

CITY           SKY/WX    TMP DP  RH WIND       PRES   REMARKS
ROCHESTER      CLOUDY    67  62  84 W7        29.99R
6HR MIN TEMP:  67; 6HR MAX TEMP:  78;

RED WING       CLOUDY    70  63  78 W5        29.92S
STANTON        CLOUDY    66  61  84 SW3       29.94S
DODGE CENTER   CLOUDY    66  61  82 W5        29.98S
WINONA         CLOUDY    77  63  61 W8        29.94R
AUSTIN         CLOUDY    70  63  78 W6        29.99S
PRESTON        CLOUDY    72  64  75 NW10      29.98F
$$
ABBREVIATIONS USED IN REMARKS
   TC - TEMPERATURES IN CELSIUS
  WCI - WIND CHILL INDEX
   HX - HEAT INDEX
  VSB - VISIBILITY
$$



USA.gov is the U.S. government's official web portal to all federal, state and local government web resources and services.